Regional Weather Roundup
Issued by NWS Charleston, SC

Current Version | Previous Version | Text Only | Print | Product List | Glossary Off
Versions: 1 2 3 4 5 6 7 8 9 10 11 12 13 14 15 16 17 18 19 20 21 22 23 24 25 26 27 28 29 30 31 32 33 34 35 36 37 38 39 40 41 42 43 44 45 46 47 48 49 50
000 ASUS42 KCHS 312110 RWRCHS REGIONAL WEATHER ROUNDUP NATIONAL WEATHER SERVICE CHARLESTON SC 500 PM EDT FRI OCT 31 2014 NOTE: "FAIR" INDICATES FEW OR NO CLOUDS BELOW 12,000 FEET WITH NO SIGNIFICANT WEATHER AND/OR OBSTRUCTIONS TO VISIBILITY. NOT ALL STATIONS ARE QUALITY CONTROLLED BY THE NATIONAL WEATHER SERVICE. USE DATA WITH CAUTION...ESPECIALLY DEWPOINT OBSERVATIONS. SCZ027-030-031-034>040-042>050-312200- ...SOUTH CAROLINA... CITY SKY/WX TMP DP RH WIND PRES REMARKS N CHARLESTON MOSUNNY 70 40 33 N10 29.79F WATERFRONT PRK N/A 68 N/A N/A S10G16 N/A FORT JOHNSON NOT AVBL JOHNS ISLAND PTCLDY 70 46 43 CALM 29.79F PINOPOLIS NOT AVBL MONCKS CORNER FAIR 68 46 45 CALM 29.80S SUMMERVILLE FAIR 68 43 40 N5 29.80S BEAUFORT MCAS MOSUNNY 69 47 45 CALM 29.79S BEAUFORT ARPT FAIR 70 46 43 N6 29.78S HILTON HEAD IS SUNNY 70 46 43 N5 29.80F GEORGETOWN NOT AVBL WALTERBORO PTCLDY 70 36 28 CALM 29.80S ORANGEBURG MOSUNNY 70 40 33 N3 29.78F BARNWELL MOCLDY 66 50 55 CALM 29.79S AIKEN CLOUDY 64 46 52 CALM 29.82S MANNING FAIR 64 52 63 CALM 29.79S KINGSTREE NOT AVBL COLUMBIA MOSUNNY 67 43 41 N3 29.78F SUMTER MOSUNNY 68 42 38 NW6 29.78S FLORENCE PTSUNNY 67 42 40 N5 29.79F MYRTLE BEACH MOSUNNY 66 39 37 N12 29.79R N MYRTLE BEACH SUNNY 67 44 43 VRB6 29.78S $$ GAZ063-065-086>088-099>101-113>116-118-119-134-136>141-150-312200- ...GEORGIA... CITY SKY/WX TMP DP RH WIND PRES REMARKS SAVANNAH ARPT MOSUNNY 73 46 38 N5 29.79S HUNTER AAF MOSUNNY 70 47 43 N6 29.77S FORT STEWART SUNNY 69 47 45 W5 29.78S STATESBORO NOT AVBL SYLVANIA CLEAR 74 55 51 CALM 29.79S CLAXTON FAIR 72 45 37 W6 29.79S THOMSON CLOUDY 67 52 56 CALM 29.84S AUGUSTA-BUSH CLOUDY 69 44 40 N10 29.78F AUGUSTA-DANIEL CLOUDY 68 44 42 NW6 29.79F SWAINSBORO FAIR 73 43 33 MISG 29.80S VIDALIA SUNNY 72 41 33 NW8 29.80S ALMA SUNNY 72 36 26 W9 29.81S WAYCROSS SUNNY 75 39 26 NW8 29.81R JESUP FAIR 73 46 38 NW10 29.80S BRUNSWICK MOSUNNY 72 50 46 CALM 29.80S SAINT SIMONS MOSUNNY 71 48 43 W6 29.80R $$ SCZ027-028-034-036>038-045-046-048>050-GAZ119-141-312200- ...LAKE AND SUPPLEMENTAL COASTAL OBSERVATIONS... STATION/POSITION TIME TEMP WIND PRES WAVE SWELL AIR SEA DIR/SP/G HT/PER HT/PER/DIR (UTC) (F) (DEG/KT/KT) (MB) (FT/S) (FT/S/D) UPR LAKE MARION NOT AVBL WINYAH BAY 2000 65 60/ 7 1008.0S LAKE MURRAY 2000 66 160/ 3/ 4 1008.5F ACE BASIN NERRS 2000 70 340/ 2 1009.0S FORT PULASKI 2100 69 50/ 3/ 4 1008.8F SAPELO ISLAND NOT AVBL $$ ANZ835-935-AMZ111-154-330-350-352-354-374-450-454-472-312200- ...C-MAN AND BUOY OBSERVATIONS... STATION/POSITION TIME TEMP WIND PRES WAVE SWELL AIR SEA DIR/SP/G HT/PER HT/PER/DIR (UTC) (F) (DEG/KT/KT) (MB) (FT/S) (FT/S/D) FOLLY BEACH CMAN 2000 67 30/ 2/ 3 1009.4F BUOY 41004 2100 65 76 350/ 14/ 17 1008.0R 5/ 8 3/ 8 BUOY 41008 2100 68 74 20/ 8/ 10 1008.8F 3/ 6 3/ 60/ 6 5E ST. MARYS GA 2100 76 N/A 3/ 6 FRYING PAN BUOY 2100 64 73 10/ 14/ 17 1008.4R 5/ 7 3/ 80/ 7 BUOY 41025 2100 64 350/ 19/ 25 1006.7R 6/ 7 CAPE LOOKOUT NC 2000 63 20/ 11/ 13 1007.6F BUOY 41002 2038 73 78 280/ 19/ 23 1006.0F 5/ 8 3/ 50/ 8 BUOY 41010 2100 73 81 210/ 4/ 8 1007.5R 3/ 8 3/110/ 8 BUOY 41012 NOT AVBL ST AUGUSTINE FL 2100 70 10/ 13/ 14 1009.5R CAPERS NEARSHORE 2000 66 60/ 8/ 10 N/A FRIPP NEARSHORE NOT AVBL $$

USA.gov is the U.S. government's official web portal to all federal, state and local government web resources and services.